Skip Page Navigation
NASA JPL Caltech
NASA Logo - Jet Propulsion Laboratory + View the NASA Portal
+ Near-Earth Object (NEO) Program
Search JPL
JPL Home Earth Solar System Stars & Galaxies Technology
JPL Solar System Dynamics
BODIES ORBITS EPHEMERIDES TOOLS PHYSICAL DATA DISCOVERY FAQ SITE MAP
JPL Small-Body Database Browser
Search: [ help ]  
22167 Lane-Cline (2000 WP157)
Classification: Main-belt Asteroid          SPK-ID: 2022167
Ephemeris | Orbit Diagram | Orbital Elements | Physical Parameters | Discovery Circumstances ]

[ show orbit diagram ]
Orbital Elements at Epoch 2457000.5 (2014-Dec-09.0) TDB
Reference: JPL 11 (heliocentric ecliptic J2000)
 Element Value Uncertainty (1-sigma)   Units 
e .07046132096021336 4.828e-08  
a 2.3045896620219 1.5087e-08 AU
q 2.142205230164585 1.1055e-07 AU
i 6.443119208231193 6.9321e-06 deg
node 11.73187891653235 4.758e-05 deg
peri 83.04216114937248 7.1605e-05 deg
M 12.08161788349447 5.2418e-05 deg
tp 2456957.614405390248
(2014-Oct-27.11440539)
0.00018605 JED
period 1277.876374537778
3.50
1.2549e-05
3.436e-08
d
yr
n .2817173923652952 2.7665e-09 deg/d
Q 2.466974093879215 1.615e-08 AU
  Orbit Determination Parameters
   # obs. used (total)      622  
   data-arc span      8695 days (23.81 yr)  
   first obs. used      1991-04-08  
   last obs. used      2015-01-27  
   planetary ephem.      DE431  
   SB-pert. ephem.      SB431-BIG16  
   condition code      0  
   fit RMS      .63335  
   data source      ORB  
   producer      Otto Matic  
   solution date      2015-Feb-04 14:01:32  

Additional Information
 Earth MOID = 1.16988 AU 
 T_jup = 3.577 
[ show covariance matrix ]

Ephemeris | Orbit Diagram | Orbital Elements | Physical Parameters | Discovery Circumstances ]

Physical Parameter Table
Parameter Symbol Value Units Sigma Reference Notes
absolute magnitude H 15.4 mag n/a MPO267790  

22167 Lane-Cline           Discovered 2000 Nov. 30 by the Lincoln Laboratory Near-Earth Asteroid Research Team at Socorro.
Amanda Lane-Cline mentored a finalist in the 2005 Discovery Channel Young Scientist Challenge (DCYSC), a middle school science competition. She teaches at the Littleton Academy, Littleton, Colorado.
NOTE: some special characters may not display properly (any characters within {} are an attempt to place the proper accent above a character)
Reference: 20051019/MPCPages.arcLast Updated: 2005-10-26

Alternate Designations
 2000 WP157 = 1991 GJ3 = 1998 FU143 
Ephemeris | Orbit Diagram | Orbital Elements | Physical Parameters | Discovery Circumstances ]
ABOUT SSD CREDITS/AWARDS PRIVACY/COPYRIGHT GLOSSARY LINKS
FirstGov 2015-Feb-28 13:56 UT
(server date/time)  
NASA Home Page
Site Manager:   Ryan S. Park
Webmaster  Alan B. Chamberlin